Change the Weather History Date:

Sunday, August 11, 2013

  Actual Average Record
Temperature  
Mean Temperature 66 °F -  
Max Temperature 81 °F 78 °F 89 °F (2002)
Min Temperature 51 °F 54 °F 46 °F (2004)
Growing Degree Days 16 (Base 50)    
Moisture  
Dew Point 55 °F    
Average Humidity 82    
Maximum Humidity 100    
Minimum Humidity 42    
Precipitation  
Precipitation 0.00 in - - ()
Sea Level Pressure  
Sea Level Pressure 30.11 in    
Wind  
Wind Speed 1 mph (West)    
Max Wind Speed 12 mph    
Max Gust Speed -    
Visibility 6 miles    
Events Fog    
Averages and records for this station are not official NWS values.
T = Trace of Precipitation, MM = Missing Value Source: NWS Daily Summary

Daily Weather History Graph

Daily Weather History Graph

Search for Another Location

Airport or City:

Trip Planner

Search our weather history database for the weather conditions in past years. The results will help you decide how hot, cold, wet, or windy it might be!

Date:

Astronomy

Aug. 11, 2013 Rise Set
Actual Time 6:38 AM EDT 8:41 PM EDT
Civil Twilight 6:07 AM EDT 9:11 PM EDT
Nautical Twilight 5:30 AM EDT 9:48 PM EDT
Astronomical Twilight 4:49 AM EDT 10:29 PM EDT
Moon 11:32 AM EDT (8/11) 10:48 PM EDT (8/11)
Length of Visible Light 15h 03m
Length of Day
14h 02m
Waxing Crescent, 22% of the Moon is Illuminated
Aug 11
Waxing Crescent
Aug 14
First Quarter
Aug 20
Full
Aug 28
Last Quarter
Sep 5
New

Hourly Weather History & Observations

Time (EDT) Temp. Heat Index Dew Point Humidity Pressure Visibility Wind Dir Wind Speed Gust Speed Precip Events Conditions
12:53 AM 62.1 °F - 59.0 °F 90% 30.12 in 10.0 mi Calm Calm - N/A   Partly Cloudy
1:53 AM 55.9 °F - 55.9 °F 100% 30.12 in 10.0 mi Calm Calm - N/A   Clear
2:47 AM 55.4 °F - 55.4 °F 100% 30.13 in 1.8 mi Calm Calm - N/A   Clear
2:53 AM 55.9 °F - 55.0 °F 97% 30.12 in 0.8 mi Calm Calm - N/A   Clear
3:12 AM 55.4 °F - 53.6 °F 94% 30.13 in 1.5 mi Calm Calm - N/A   Clear
3:14 AM 55.4 °F - 53.6 °F 94% 30.13 in 5.0 mi Calm Calm - N/A   Clear
3:24 AM 53.6 °F - 51.8 °F 94% 30.13 in 1.5 mi Calm Calm - N/A   Clear
3:26 AM 51.8 °F - 51.8 °F 100% 30.13 in 0.8 mi Calm Calm - N/A   Clear
3:37 AM 55.4 °F - 53.6 °F 94% 30.13 in 2.5 mi Calm Calm - N/A   Clear
3:44 AM 53.6 °F - 53.6 °F 100% 30.13 in 7.0 mi Calm Calm - N/A   Partly Cloudy
3:53 AM 54.0 °F - 53.1 °F 97% 30.12 in 1.8 mi Calm Calm - N/A   Scattered Clouds
4:00 AM 53.6 °F - 53.6 °F 100% 30.13 in 3.0 mi Calm Calm - N/A   Scattered Clouds
4:21 AM 55.4 °F - 53.6 °F 94% 30.13 in 2.5 mi Calm Calm - N/A   Partly Cloudy
4:30 AM 53.6 °F - 51.8 °F 94% 30.13 in 6.0 mi Calm Calm - N/A   Scattered Clouds
4:53 AM 53.1 °F - 52.0 °F 96% 30.12 in 4.0 mi Calm Calm - N/A   Partly Cloudy
4:58 AM 53.6 °F - 51.8 °F 94% 30.13 in 1.8 mi Calm Calm - N/A   Clear
5:06 AM 53.6 °F - 53.6 °F 100% 30.12 in 1.2 mi Calm Calm - N/A   Clear
5:20 AM 53.6 °F - 51.8 °F 94% 30.12 in 0.5 mi Calm Calm - N/A Fog Fog
5:53 AM 52.0 °F - 51.1 °F 97% 30.12 in 0.5 mi Calm Calm - N/A Fog Fog
6:12 AM 51.8 °F - 51.8 °F 100% 30.13 in 1.5 mi Calm Calm - N/A   Clear
6:14 AM 51.8 °F - 51.8 °F 100% 30.13 in 4.0 mi Calm Calm - N/A   Clear
6:17 AM 51.8 °F - 51.8 °F 100% 30.13 in 1.5 mi Calm Calm - N/A   Clear
6:19 AM 51.8 °F - 51.8 °F 100% 30.13 in 0.8 mi Calm Calm - N/A   Clear
6:53 AM 53.1 °F - 52.0 °F 96% 30.13 in 0.2 mi Calm Calm - N/A Fog Fog
7:15 AM 51.8 °F - 51.8 °F 100% 30.13 in 1.2 mi West 3.5 mph - N/A   Partly Cloudy
7:17 AM 51.8 °F - 51.8 °F 100% 30.13 in 4.0 mi West 3.5 mph - N/A   Partly Cloudy
7:53 AM 57.0 °F - 55.9 °F 96% 30.13 in 10.0 mi Calm Calm - N/A   Clear
8:53 AM 66.0 °F - 61.0 °F 84% 30.12 in 10.0 mi Calm Calm - N/A   Clear
9:53 AM 71.1 °F - 60.1 °F 68% 30.12 in 10.0 mi South 6.9 mph - N/A   Clear
10:53 AM 73.9 °F - 57.9 °F 57% 30.12 in 10.0 mi South 6.9 mph - N/A   Clear
11:53 AM 75.9 °F - 59.0 °F 56% 30.11 in 10.0 mi WSW 4.6 mph - N/A   Mostly Cloudy
12:53 PM 75.9 °F - 55.9 °F 50% 30.10 in 10.0 mi SSW 6.9 mph - N/A   Overcast
1:53 PM 78.1 °F - 55.9 °F 46% 30.10 in 10.0 mi West 6.9 mph - N/A   Mostly Cloudy
2:53 PM 77.0 °F - 54.0 °F 45% 30.09 in 10.0 mi NW 5.8 mph - N/A   Mostly Cloudy
3:53 PM 79.0 °F - 55.0 °F 44% 30.07 in 10.0 mi WSW 8.1 mph - N/A   Mostly Cloudy
4:53 PM 80.1 °F 80.1 °F 55.0 °F 42% 30.06 in 10.0 mi WNW 11.5 mph - N/A   Scattered Clouds
5:53 PM 78.1 °F - 54.0 °F 43% 30.05 in 10.0 mi WNW 10.4 mph - N/A   Scattered Clouds
6:53 PM 75.9 °F - 55.0 °F 48% 30.04 in 10.0 mi WNW 8.1 mph - N/A   Partly Cloudy
7:53 PM 73.9 °F - 55.9 °F 53% 30.04 in 10.0 mi NW 4.6 mph - N/A   Overcast
8:53 PM 72.0 °F - 57.0 °F 59% 30.05 in 10.0 mi WNW 4.6 mph - N/A   Overcast
9:53 PM 69.1 °F - 60.1 °F 73% 30.06 in 10.0 mi Calm Calm - N/A   Overcast
10:53 PM 68.0 °F - 61.0 °F 78% 30.06 in 10.0 mi NW 3.5 mph - N/A   Overcast
11:53 PM 68.0 °F - 59.0 °F 73% 30.06 in 10.0 mi Calm Calm - N/A   Overcast